Simultaneous Nadir Overpasses (SNOs) Predictions

Prediction of SNOs between LANDSAT-8 and METOP-B Satellite Orbit:

Table of predicted SNOs for the next 14.0 days since TLE Epoch: 6/15/2019
Index Date (LANDSAT-8) Time (LANDSAT-8) Lat,Lon (LANDSAT-8) SZA (LANDSAT-8 ) Date (METOP-B) Time (METOP-B) Lat,Lon (METOP-B) SZA (METOP-B ) Distance(km) Time Diff (sec)
1 06/17/2019 13:04:58 81.14, 24.10 59.95 06/17/2019 13:04:39 81.15, 24.15 59.96 1.01 19
2 06/17/2019 13:54:24 -81.16,-167.93 120.00 06/17/2019 13:55:19 -81.16,-168.05 119.99 2.11 55
3 06/20/2019 08:39:13 81.15, 90.60 59.90 06/20/2019 08:39:01 81.15, 90.43 59.87 2.96 12
4 06/20/2019 09:28:39 -81.17,-101.40 120.05 06/20/2019 09:29:40 -81.17,-101.38 120.02 0.46 61
5 06/23/2019 04:13:29 81.15, 157.09 59.89 06/23/2019 04:13:23 81.15, 157.09 59.89 0.24 6
6 06/23/2019 05:02:55 -81.17, -34.90 120.06 06/23/2019 05:04:02 -81.18, -34.71 120.00 3.18 67
7 06/25/2019 22:58:20 -81.13, 55.54 120.13 06/25/2019 22:57:07 -81.13, 55.54 120.15 0.43 73
8 06/25/2019 23:47:45 81.15,-136.45 59.93 06/25/2019 23:47:45 81.16,-136.27 59.96 3.29 0
9 06/26/2019 00:37:11 -81.18, 31.58 120.01 06/26/2019 00:38:25 -81.18, 31.56 119.98 0.46 74
10 06/28/2019 18:32:36 -81.13, 121.99 120.03 06/28/2019 18:31:30 -81.13, 121.80 120.08 3.30 66




NCC Satellite Simultaneous Nadir Overpasses (SNOs) Prediction Service
